Location: Mohawk View
(42.7837°N, 73.7885°W)
Time: 09:27:38
(UTC+00:00)

Meteor 1-24 Rocket - Pass Details

Date: 29 October 2021
Orbit: 790 x 927 km, 81.3° (Epoch: 27 November)

Event Time Altitude Azimuth Distance (km) Brightness Sun altitude
Rises 22:27:45 0° 328° (NNW) 3,529 7.2 -7.3°
Reaches altitude 10° 22:32:00 10° 299° (WNW) 2,607 7.1 -8.1°
Maximum altitude 22:34:02 12° 279° (W) 2,480 7.4 -8.4°
Drops below altitude 10° 22:36:04 10° 259° (W) 2,617 8.0 -8.8°
Sets 22:40:23 0° 229° (SW) 3,563 8.1 -9.6°
